Year,Month,Day,Hour,Minute,Value (Times are PST for temperature in C)
2006,05,03,00,00,7.80
2006,05,03,00,01,7.80
2006,05,03,00,02,7.70
2006,05,03,00,03,7.70
2006,05,03,00,04,7.70
2006,05,03,00,05,7.70
2006,05,03,00,06,7.70
2006,05,03,00,07,7.70
2006,05,03,00,08,7.70
2006,05,03,00,09,7.60
2006,05,03,00,10,7.60
2006,05,03,00,11,7.60
2006,05,03,00,12,7.60
2006,05,03,00,13,7.60
2006,05,03,00,14,7.60
2006,05,03,00,15,7.50
2006,05,03,00,16,7.50
2006,05,03,00,17,7.50
2006,05,03,00,18,7.40
2006,05,03,00,19,7.40
2006,05,03,00,20,7.40
2006,05,03,00,21,7.40
2006,05,03,00,22,7.30
2006,05,03,00,23,7.30
2006,05,03,00,24,7.30
2006,05,03,00,25,7.20
2006,05,03,00,26,7.20
2006,05,03,00,27,7.20
2006,05,03,00,28,7.10
2006,05,03,00,29,7.10
2006,05,03,00,30,7.10
2006,05,03,00,31,7.00
2006,05,03,00,32,7.00
2006,05,03,00,33,7.00
2006,05,03,00,34,6.90
2006,05,03,00,35,6.90
2006,05,03,00,36,6.90
2006,05,03,00,37,6.80
2006,05,03,00,38,6.80
2006,05,03,00,39,6.80
2006,05,03,00,40,6.80
2006,05,03,00,41,6.80
2006,05,03,00,42,6.80
2006,05,03,00,43,6.70
2006,05,03,00,44,6.70
2006,05,03,00,45,6.70
2006,05,03,00,46,6.60
2006,05,03,00,47,6.60
2006,05,03,00,48,6.60
2006,05,03,00,49,6.60
2006,05,03,00,50,6.60
2006,05,03,00,51,6.60
2006,05,03,00,52,6.60
2006,05,03,00,53,6.60
2006,05,03,00,54,6.60
2006,05,03,00,55,6.60
2006,05,03,00,56,6.60
2006,05,03,00,57,6.60
2006,05,03,00,58,6.60
2006,05,03,00,59,6.60
2006,05,03,01,00,6.60
2006,05,03,01,01,6.60
2006,05,03,01,02,6.50
2006,05,03,01,03,6.40
2006,05,03,01,04,6.40
2006,05,03,01,05,6.40
2006,05,03,01,06,6.40
2006,05,03,01,07,6.40
2006,05,03,01,08,6.40
2006,05,03,01,09,6.40
2006,05,03,01,10,6.40
2006,05,03,01,11,6.40
2006,05,03,01,12,6.40
2006,05,03,01,13,6.40
2006,05,03,01,14,6.40
2006,05,03,01,15,6.40
2006,05,03,01,16,6.40
2006,05,03,01,17,6.40
2006,05,03,01,18,6.40
2006,05,03,01,19,6.40
2006,05,03,01,20,6.40
2006,05,03,01,21,6.40
2006,05,03,01,22,6.40
2006,05,03,01,23,6.40
2006,05,03,01,24,6.40
2006,05,03,01,25,6.40
2006,05,03,01,26,6.40
2006,05,03,01,27,6.40
2006,05,03,01,28,6.40
2006,05,03,01,29,6.40
2006,05,03,01,30,6.40
2006,05,03,01,31,6.40
2006,05,03,01,32,6.40
2006,05,03,01,33,6.40
2006,05,03,01,34,6.40
2006,05,03,01,35,6.40
2006,05,03,01,36,6.40
2006,05,03,01,37,6.40
2006,05,03,01,38,6.30
2006,05,03,01,39,6.30
2006,05,03,01,40,6.30
2006,05,03,01,41,6.30
2006,05,03,01,42,6.20
2006,05,03,01,43,6.20
2006,05,03,01,44,6.20
2006,05,03,01,45,6.20
2006,05,03,01,46,6.20
2006,05,03,01,47,6.20
2006,05,03,01,48,6.20
2006,05,03,01,49,6.20
2006,05,03,01,50,6.10
2006,05,03,01,51,6.10
2006,05,03,01,52,6.10
2006,05,03,01,53,6.10
2006,05,03,01,54,6.20
2006,05,03,01,55,6.20
2006,05,03,01,56,6.20
2006,05,03,01,57,6.20
2006,05,03,01,58,6.20
2006,05,03,01,59,6.20
2006,05,03,02,00,6.20
2006,05,03,02,01,6.20
2006,05,03,02,02,6.20
2006,05,03,02,03,6.20
2006,05,03,02,04,6.20
2006,05,03,02,05,6.20
2006,05,03,02,06,6.20
2006,05,03,02,07,6.20
2006,05,03,02,08,6.20
2006,05,03,02,09,6.30
2006,05,03,02,10,6.30
2006,05,03,02,11,6.30
2006,05,03,02,12,6.30
2006,05,03,02,13,6.30
2006,05,03,02,14,6.30
2006,05,03,02,15,6.30
2006,05,03,02,16,6.30
2006,05,03,02,17,6.30
2006,05,03,02,18,6.20
2006,05,03,02,19,6.20
2006,05,03,02,20,6.20
2006,05,03,02,21,6.20
2006,05,03,02,22,6.10
2006,05,03,02,23,6.10
2006,05,03,02,24,6.10
2006,05,03,02,25,6.00
2006,05,03,02,26,6.00
2006,05,03,02,27,6.00
2006,05,03,02,28,5.90
2006,05,03,02,29,5.90
2006,05,03,02,30,5.90
2006,05,03,02,31,5.80
2006,05,03,02,32,5.80
2006,05,03,02,33,5.80
2006,05,03,02,34,5.80
2006,05,03,02,35,5.80
2006,05,03,02,36,5.80
2006,05,03,02,37,5.80
2006,05,03,02,38,5.80
2006,05,03,02,39,5.80
2006,05,03,02,40,5.80
2006,05,03,02,41,5.80
2006,05,03,02,42,5.80
2006,05,03,02,43,5.80
2006,05,03,02,44,5.80
2006,05,03,02,45,5.80
2006,05,03,02,46,5.80
2006,05,03,02,47,5.80
2006,05,03,02,48,5.80
2006,05,03,02,49,5.80
2006,05,03,02,50,5.80
2006,05,03,02,51,5.90
2006,05,03,02,52,5.90
2006,05,03,02,53,6.00
2006,05,03,02,54,6.00
2006,05,03,02,55,6.00
2006,05,03,02,56,6.00
2006,05,03,02,57,6.00
2006,05,03,02,58,6.00
2006,05,03,02,59,6.10
2006,05,03,03,00,6.10
2006,05,03,03,01,6.10
2006,05,03,03,02,6.10
2006,05,03,03,03,6.10
2006,05,03,03,04,6.10
2006,05,03,03,05,6.10
2006,05,03,03,06,6.10
2006,05,03,03,07,6.10
2006,05,03,03,08,6.10
2006,05,03,03,09,6.10
2006,05,03,03,10,6.00
2006,05,03,03,11,6.00
2006,05,03,03,12,6.00
2006,05,03,03,13,5.90
2006,05,03,03,14,5.90
2006,05,03,03,15,5.80
2006,05,03,03,16,5.80
2006,05,03,03,17,5.80
2006,05,03,03,18,5.70
2006,05,03,03,19,5.70
2006,05,03,03,20,5.70
2006,05,03,03,21,5.70
2006,05,03,03,22,5.70
2006,05,03,03,23,5.70
2006,05,03,03,24,5.70
2006,05,03,03,25,5.70
2006,05,03,03,26,5.70
2006,05,03,03,27,5.70
2006,05,03,03,28,5.70
2006,05,03,03,29,5.70
2006,05,03,03,30,5.60
2006,05,03,03,31,5.60
2006,05,03,03,32,5.60
2006,05,03,03,33,5.60
2006,05,03,03,34,5.50
2006,05,03,03,35,5.40
2006,05,03,03,36,5.30
2006,05,03,03,37,5.30
2006,05,03,03,38,5.30
2006,05,03,03,39,5.20
2006,05,03,03,40,5.20
2006,05,03,03,41,5.10
2006,05,03,03,42,5.10
2006,05,03,03,43,5.10
2006,05,03,03,44,5.00
2006,05,03,03,45,4.90
2006,05,03,03,46,4.90
2006,05,03,03,47,4.90
2006,05,03,03,48,4.90
2006,05,03,03,49,4.90
2006,05,03,03,50,4.90
2006,05,03,03,51,4.80
2006,05,03,03,52,4.80
2006,05,03,03,53,4.80
2006,05,03,03,54,4.70
2006,05,03,03,55,4.70
2006,05,03,03,56,4.70
2006,05,03,03,57,4.70
2006,05,03,03,58,4.60
2006,05,03,03,59,4.60
2006,05,03,04,00,4.60
2006,05,03,04,01,4.60
2006,05,03,04,02,4.60
2006,05,03,04,03,4.60
2006,05,03,04,04,4.60
2006,05,03,04,05,4.60
2006,05,03,04,06,4.60
2006,05,03,04,07,4.60
2006,05,03,04,08,4.60
2006,05,03,04,09,4.60
2006,05,03,04,10,4.60
2006,05,03,04,11,4.60
2006,05,03,04,12,4.60
2006,05,03,04,13,4.70
2006,05,03,04,14,4.70
2006,05,03,04,15,4.70
2006,05,03,04,16,4.70
2006,05,03,04,17,4.70
2006,05,03,04,18,4.70
2006,05,03,04,19,4.70
2006,05,03,04,20,4.70
2006,05,03,04,21,4.70
2006,05,03,04,22,4.70
2006,05,03,04,23,4.60
2006,05,03,04,24,4.60
2006,05,03,04,25,4.60
2006,05,03,04,26,4.60
2006,05,03,04,27,4.60
2006,05,03,04,28,4.60
2006,05,03,04,29,4.50
2006,05,03,04,30,4.50
2006,05,03,04,31,4.50
2006,05,03,04,32,4.50
2006,05,03,04,33,4.50
2006,05,03,04,34,4.50
2006,05,03,04,35,4.50
2006,05,03,04,36,4.50
2006,05,03,04,37,4.50
2006,05,03,04,38,4.50
2006,05,03,04,39,4.50
2006,05,03,04,40,4.50
2006,05,03,04,41,4.50
2006,05,03,04,42,4.50
2006,05,03,04,43,4.50
2006,05,03,04,44,4.60
2006,05,03,04,45,4.60
2006,05,03,04,46,4.60
2006,05,03,04,47,4.60
2006,05,03,04,48,4.60
2006,05,03,04,49,4.60
2006,05,03,04,50,4.60
2006,05,03,04,51,4.60
2006,05,03,04,52,4.60
2006,05,03,04,53,4.60
2006,05,03,04,54,4.60
2006,05,03,04,55,4.60
2006,05,03,04,56,4.60
2006,05,03,04,57,4.60
2006,05,03,04,58,4.60
2006,05,03,04,59,4.60
2006,05,03,05,00,4.60
2006,05,03,05,01,4.60
2006,05,03,05,02,4.60
2006,05,03,05,03,4.60
2006,05,03,05,04,4.60
2006,05,03,05,05,4.60
2006,05,03,05,06,4.60
2006,05,03,05,07,4.70
2006,05,03,05,08,4.70
2006,05,03,05,09,4.70
2006,05,03,05,10,4.70
2006,05,03,05,11,4.70
2006,05,03,05,12,4.70
2006,05,03,05,13,4.80
2006,05,03,05,14,4.80
2006,05,03,05,15,4.70
2006,05,03,05,16,4.70
2006,05,03,05,17,4.70
2006,05,03,05,18,4.70
2006,05,03,05,19,4.70
2006,05,03,05,20,4.70
2006,05,03,05,21,4.70
2006,05,03,05,22,4.70
2006,05,03,05,23,4.70
2006,05,03,05,24,4.70
2006,05,03,05,25,4.70
2006,05,03,05,26,4.70
2006,05,03,05,27,4.70
2006,05,03,05,28,4.80
2006,05,03,05,29,4.80
2006,05,03,05,30,4.80
2006,05,03,05,31,4.80
2006,05,03,05,32,4.80
2006,05,03,05,33,4.90
2006,05,03,05,34,4.90
2006,05,03,05,35,4.90
2006,05,03,05,36,4.90
2006,05,03,05,37,4.90
2006,05,03,05,38,4.90
2006,05,03,05,39,4.90
2006,05,03,05,40,4.90
2006,05,03,05,41,4.90
2006,05,03,05,42,4.90
2006,05,03,05,43,4.90
2006,05,03,05,44,4.90
2006,05,03,05,45,4.90
2006,05,03,05,46,4.90
2006,05,03,05,47,4.90
2006,05,03,05,48,4.90
2006,05,03,05,49,5.00
2006,05,03,05,50,5.10
2006,05,03,05,51,5.10
2006,05,03,05,52,5.10
2006,05,03,05,53,5.10
2006,05,03,05,54,5.10
2006,05,03,05,55,5.10
2006,05,03,05,56,5.10
2006,05,03,05,57,5.10
2006,05,03,05,58,5.10
2006,05,03,05,59,5.10
2006,05,03,06,00,5.10
2006,05,03,06,01,5.10
2006,05,03,06,02,5.10
2006,05,03,06,03,5.00
2006,05,03,06,04,4.90
2006,05,03,06,05,4.90
2006,05,03,06,06,4.90
2006,05,03,06,07,4.90
2006,05,03,06,08,4.90
2006,05,03,06,09,4.90
2006,05,03,06,10,5.00
2006,05,03,06,11,5.10
2006,05,03,06,12,5.10
2006,05,03,06,13,5.10
2006,05,03,06,14,5.10
2006,05,03,06,15,5.10
2006,05,03,06,16,5.10
2006,05,03,06,17,5.10
2006,05,03,06,18,5.10
2006,05,03,06,19,5.10
2006,05,03,06,20,5.10
2006,05,03,06,21,5.10
2006,05,03,06,22,5.10
2006,05,03,06,23,5.10
2006,05,03,06,24,5.20
2006,05,03,06,25,5.20
2006,05,03,06,26,5.20
2006,05,03,06,27,5.30
2006,05,03,06,28,5.30
2006,05,03,06,29,5.40
2006,05,03,06,30,5.50
2006,05,03,06,31,5.50
2006,05,03,06,32,5.50
2006,05,03,06,33,5.60
2006,05,03,06,34,5.60
2006,05,03,06,35,5.60
2006,05,03,06,36,5.70
2006,05,03,06,37,5.70
2006,05,03,06,38,5.70
2006,05,03,06,39,5.80
2006,05,03,06,40,5.90
2006,05,03,06,41,5.90
2006,05,03,06,42,5.90
2006,05,03,06,43,5.90
2006,05,03,06,44,5.90
2006,05,03,06,45,6.00
2006,05,03,06,46,6.00
2006,05,03,06,47,6.00
2006,05,03,06,48,6.10
2006,05,03,06,49,6.20
2006,05,03,06,50,6.20
2006,05,03,06,51,6.20
2006,05,03,06,52,6.20
2006,05,03,06,53,6.20
2006,05,03,06,54,6.20
2006,05,03,06,55,6.30
2006,05,03,06,56,6.30
2006,05,03,06,57,6.30
2006,05,03,06,58,6.30
2006,05,03,06,59,6.30
2006,05,03,07,00,6.30
2006,05,03,07,01,6.40
2006,05,03,07,02,6.40
2006,05,03,07,03,6.40
2006,05,03,07,04,6.40
2006,05,03,07,05,6.40
2006,05,03,07,06,6.40
2006,05,03,07,07,6.50
2006,05,03,07,08,6.60
2006,05,03,07,09,6.70
2006,05,03,07,10,6.70
2006,05,03,07,11,6.80
2006,05,03,07,12,6.80
2006,05,03,07,13,6.80
2006,05,03,07,14,6.80
2006,05,03,07,15,6.80
2006,05,03,07,16,6.90
2006,05,03,07,17,6.90
2006,05,03,07,18,7.00
2006,05,03,07,19,7.00
2006,05,03,07,20,7.10
2006,05,03,07,21,7.10
2006,05,03,07,22,7.10
2006,05,03,07,23,7.20
2006,05,03,07,24,7.30
2006,05,03,07,25,7.30
2006,05,03,07,26,7.30
2006,05,03,07,27,7.40
2006,05,03,07,28,7.50
2006,05,03,07,29,7.60
2006,05,03,07,30,7.60
2006,05,03,07,31,7.80
2006,05,03,07,32,7.90
2006,05,03,07,33,8.00
2006,05,03,07,34,8.10
2006,05,03,07,35,8.20
2006,05,03,07,36,8.30
2006,05,03,07,37,8.40
2006,05,03,07,38,8.60
2006,05,03,07,39,8.70
2006,05,03,07,40,8.80
2006,05,03,07,41,8.90
2006,05,03,07,42,9.00
2006,05,03,07,43,9.10
2006,05,03,07,45,9.40
2006,05,03,07,46,9.40
2006,05,03,07,47,9.50
2006,05,03,07,48,9.60
2006,05,03,07,49,9.70
2006,05,03,07,50,9.70
2006,05,03,07,51,9.80
2006,05,03,07,52,9.80
2006,05,03,07,53,9.80
2006,05,03,07,54,9.90
2006,05,03,07,55,9.90
2006,05,03,07,56,9.90
2006,05,03,07,57,10.00
2006,05,03,07,58,10.10
2006,05,03,07,59,10.20
2006,05,03,08,00,10.30
2006,05,03,08,01,10.40
2006,05,03,08,02,10.50
2006,05,03,08,03,10.60
2006,05,03,08,04,10.70
2006,05,03,08,05,10.80
2006,05,03,08,06,10.90
2006,05,03,08,07,10.90
2006,05,03,08,08,11.00
2006,05,03,08,09,11.10
2006,05,03,08,10,11.20
2006,05,03,08,11,11.30
2006,05,03,08,12,11.40
2006,05,03,08,13,11.40
2006,05,03,08,14,11.40
2006,05,03,08,15,11.50
2006,05,03,08,16,11.60
2006,05,03,08,17,11.60
2006,05,03,08,18,11.70
2006,05,03,08,19,11.70
2006,05,03,08,20,11.70
2006,05,03,08,21,11.60
2006,05,03,08,22,11.40
2006,05,03,08,23,11.30
2006,05,03,08,24,11.20
2006,05,03,08,25,11.10
2006,05,03,08,26,11.10
2006,05,03,08,27,10.90
2006,05,03,08,28,10.90
2006,05,03,08,29,10.80
2006,05,03,08,30,10.70
2006,05,03,08,31,10.70
2006,05,03,08,32,10.60
2006,05,03,08,33,10.60
2006,05,03,08,34,10.70
2006,05,03,08,35,10.70
2006,05,03,08,36,10.80
2006,05,03,08,37,10.80
2006,05,03,08,38,10.90
2006,05,03,08,39,10.80
2006,05,03,08,40,10.80
2006,05,03,08,41,10.70
2006,05,03,08,42,10.70
2006,05,03,08,43,10.70
2006,05,03,08,44,10.60
2006,05,03,08,45,10.60
2006,05,03,08,46,10.60
2006,05,03,08,47,10.60
2006,05,03,08,48,10.60
2006,05,03,08,49,10.60
2006,05,03,08,50,10.60
2006,05,03,08,51,10.70
2006,05,03,08,52,10.70
2006,05,03,08,53,10.80
2006,05,03,08,54,10.80
2006,05,03,08,55,10.90
2006,05,03,08,56,10.90
2006,05,03,08,57,11.00
2006,05,03,08,58,11.10
2006,05,03,08,59,11.20
2006,05,03,09,00,11.30
2006,05,03,09,01,11.40
2006,05,03,09,02,11.40
2006,05,03,09,03,11.40
2006,05,03,09,04,11.60
2006,05,03,09,05,11.60
2006,05,03,09,06,11.70
2006,05,03,09,07,11.80
2006,05,03,09,08,11.90
2006,05,03,09,09,12.00
2006,05,03,09,10,12.00
2006,05,03,09,11,12.00
2006,05,03,09,12,12.00
2006,05,03,09,13,11.90
2006,05,03,09,14,11.80
2006,05,03,09,15,11.80
2006,05,03,09,16,11.70
2006,05,03,09,17,11.60
2006,05,03,09,18,11.60
2006,05,03,09,19,11.50
2006,05,03,09,20,11.40
2006,05,03,09,21,11.40
2006,05,03,09,22,11.40
2006,05,03,09,23,11.30
2006,05,03,09,24,11.20
2006,05,03,09,25,11.20
2006,05,03,09,26,11.30
2006,05,03,09,27,11.30
2006,05,03,09,28,11.30
2006,05,03,09,29,11.30
2006,05,03,09,30,11.30
2006,05,03,09,31,11.30
2006,05,03,09,32,11.40
2006,05,03,09,33,11.40
2006,05,03,09,34,11.40
2006,05,03,09,35,11.30
2006,05,03,09,36,11.20
2006,05,03,09,37,11.10
2006,05,03,09,38,11.10
2006,05,03,09,39,11.20
2006,05,03,09,40,11.20
2006,05,03,09,41,11.20
2006,05,03,09,42,11.20
2006,05,03,09,43,11.20
2006,05,03,09,44,11.10
2006,05,03,09,45,11.10
2006,05,03,09,46,11.10
2006,05,03,09,47,11.10
2006,05,03,09,48,11.00
2006,05,03,09,49,11.10
2006,05,03,09,50,11.20
2006,05,03,09,51,11.30
2006,05,03,09,52,11.40
2006,05,03,09,53,11.40
2006,05,03,09,54,11.30
2006,05,03,09,55,11.20
2006,05,03,09,56,11.20
2006,05,03,09,57,11.30
2006,05,03,09,58,11.30
2006,05,03,09,59,11.40
2006,05,03,10,00,11.50
2006,05,03,10,01,11.40
2006,05,03,10,02,11.30
2006,05,03,10,03,11.20
2006,05,03,10,04,11.20
2006,05,03,10,05,11.20
2006,05,03,10,06,11.30
2006,05,03,10,07,11.30
2006,05,03,10,08,11.20
2006,05,03,10,09,11.10
2006,05,03,10,10,11.10
2006,05,03,10,11,10.90
2006,05,03,10,12,10.80
2006,05,03,10,13,10.80
2006,05,03,10,14,10.70
2006,05,03,10,15,10.60
2006,05,03,10,16,10.60
2006,05,03,10,17,10.60
2006,05,03,10,18,10.60
2006,05,03,10,19,10.60
2006,05,03,10,20,10.60
2006,05,03,10,21,10.50
2006,05,03,10,22,10.60
2006,05,03,10,23,10.70
2006,05,03,10,24,10.80
2006,05,03,10,25,10.80
2006,05,03,10,26,10.90
2006,05,03,10,27,10.90
2006,05,03,10,28,10.90
2006,05,03,10,29,10.80
2006,05,03,10,30,10.80
2006,05,03,10,31,10.90
2006,05,03,10,32,10.90
2006,05,03,10,33,10.90
2006,05,03,10,34,10.90
2006,05,03,10,35,10.90
2006,05,03,10,36,10.80
2006,05,03,10,37,10.80
2006,05,03,10,38,10.80
2006,05,03,10,39,10.80
2006,05,03,10,40,10.90
2006,05,03,10,41,11.10
2006,05,03,10,42,11.10
2006,05,03,10,43,11.20
2006,05,03,10,44,11.20
2006,05,03,10,45,11.20
2006,05,03,10,46,11.30
2006,05,03,10,47,11.30
2006,05,03,10,48,11.30
2006,05,03,10,49,11.30
2006,05,03,10,50,11.20
2006,05,03,10,51,11.20
2006,05,03,10,52,11.20
2006,05,03,10,53,11.20
2006,05,03,10,54,11.20
2006,05,03,10,55,11.20
2006,05,03,10,56,11.20
2006,05,03,10,57,11.30
2006,05,03,10,58,11.30
2006,05,03,10,59,11.30
2006,05,03,11,00,11.30
2006,05,03,11,01,11.40
2006,05,03,11,02,11.40
2006,05,03,11,03,11.40
2006,05,03,11,04,11.40
2006,05,03,11,05,11.40
2006,05,03,11,06,11.40
2006,05,03,11,07,11.50
2006,05,03,11,08,11.60
2006,05,03,11,09,11.60
2006,05,03,11,10,11.50
2006,05,03,11,11,11.40
2006,05,03,11,12,11.40
2006,05,03,11,13,11.30
2006,05,03,11,14,11.30
2006,05,03,11,15,11.40
2006,05,03,11,16,11.40
2006,05,03,11,17,11.40
2006,05,03,11,18,11.30
2006,05,03,11,19,11.30
2006,05,03,11,20,11.40
2006,05,03,11,21,11.40
2006,05,03,11,22,11.50
2006,05,03,11,23,11.60
2006,05,03,11,24,11.80
2006,05,03,11,25,11.90
2006,05,03,11,26,12.10
2006,05,03,11,27,12.20
2006,05,03,11,28,12.30
2006,05,03,11,29,12.30
2006,05,03,11,30,12.20
2006,05,03,11,31,12.20
2006,05,03,11,32,12.10
2006,05,03,11,33,12.10
2006,05,03,11,34,12.10
2006,05,03,11,35,12.10
2006,05,03,11,36,12.20
2006,05,03,11,37,12.20
2006,05,03,11,38,12.10
2006,05,03,11,39,12.10
2006,05,03,11,40,12.00
2006,05,03,11,41,12.00
2006,05,03,11,42,12.00
2006,05,03,11,43,12.10
2006,05,03,11,44,12.20
2006,05,03,11,45,12.40
2006,05,03,11,46,12.50
2006,05,03,11,47,12.70
2006,05,03,11,48,12.80
2006,05,03,11,49,12.90
2006,05,03,11,50,12.90
2006,05,03,11,51,12.80
2006,05,03,11,52,12.80
2006,05,03,11,53,12.60
2006,05,03,11,54,12.50
2006,05,03,11,55,12.50
2006,05,03,11,56,12.60
2006,05,03,11,57,12.60
2006,05,03,11,58,12.50
2006,05,03,11,59,12.50
2006,05,03,12,00,12.60
2006,05,03,12,01,12.80
2006,05,03,12,02,12.90
2006,05,03,12,03,12.90
2006,05,03,12,04,12.90
2006,05,03,12,05,13.00
2006,05,03,12,06,13.10
2006,05,03,12,07,13.10
2006,05,03,12,08,13.00
2006,05,03,12,09,12.80
2006,05,03,12,10,12.70
2006,05,03,12,11,12.60
2006,05,03,12,12,12.60
2006,05,03,12,13,12.60
2006,05,03,12,14,12.60
2006,05,03,12,15,12.70
2006,05,03,12,16,12.80
2006,05,03,12,17,12.80
2006,05,03,12,18,12.80
2006,05,03,12,19,12.90
2006,05,03,12,20,13.00
2006,05,03,12,21,13.10
2006,05,03,12,22,13.10
2006,05,03,12,23,13.00
2006,05,03,12,24,13.00
2006,05,03,12,25,12.90
2006,05,03,12,26,12.90
2006,05,03,12,27,13.00
2006,05,03,12,28,13.10
2006,05,03,12,29,13.20
2006,05,03,12,30,13.40
2006,05,03,12,31,13.40
2006,05,03,12,32,13.20
2006,05,03,12,33,13.10
2006,05,03,12,34,13.00
2006,05,03,12,35,13.10
2006,05,03,12,36,13.20
2006,05,03,12,37,13.30
2006,05,03,12,38,13.30
2006,05,03,12,39,13.30
2006,05,03,12,40,12.90
2006,05,03,12,41,12.80
2006,05,03,12,42,13.00
2006,05,03,12,43,13.10
2006,05,03,12,44,13.30
2006,05,03,12,45,13.40
2006,05,03,12,46,13.40
2006,05,03,12,47,13.40
2006,05,03,12,48,13.40
2006,05,03,12,49,13.40
2006,05,03,12,50,13.30
2006,05,03,12,51,13.30
2006,05,03,12,52,13.20
2006,05,03,12,53,13.20
2006,05,03,12,54,13.10
2006,05,03,12,55,13.20
2006,05,03,12,56,13.10
2006,05,03,12,57,13.10
2006,05,03,12,58,13.00
2006,05,03,12,59,12.90
2006,05,03,13,00,12.80
2006,05,03,13,01,12.80
2006,05,03,13,02,12.70
2006,05,03,13,03,12.70
2006,05,03,13,04,12.80
2006,05,03,13,05,12.90
2006,05,03,13,06,13.00
2006,05,03,13,07,13.10
2006,05,03,13,08,13.10
2006,05,03,13,09,13.00
2006,05,03,13,10,12.90
2006,05,03,13,11,12.80
2006,05,03,13,12,12.80
2006,05,03,13,13,12.90
2006,05,03,13,14,13.00
2006,05,03,13,15,13.10
2006,05,03,13,16,13.10
2006,05,03,13,17,13.30
2006,05,03,13,18,13.30
2006,05,03,13,19,13.30
2006,05,03,13,20,13.30
2006,05,03,13,21,13.40
2006,05,03,13,22,13.60
2006,05,03,13,23,13.60
2006,05,03,13,24,13.70
2006,05,03,13,25,13.80
2006,05,03,13,26,13.80
2006,05,03,13,27,13.70
2006,05,03,13,28,13.80
2006,05,03,13,29,13.90
2006,05,03,13,30,13.90
2006,05,03,13,31,14.00
2006,05,03,13,32,14.10
2006,05,03,13,33,14.20
2006,05,03,13,34,14.20
2006,05,03,13,35,14.20
2006,05,03,13,36,14.20
2006,05,03,13,37,14.00
2006,05,03,13,38,13.80
2006,05,03,13,39,13.60
2006,05,03,13,40,13.40
2006,05,03,13,41,13.30
2006,05,03,13,42,13.30
2006,05,03,13,43,13.30
2006,05,03,13,44,13.30
2006,05,03,13,45,13.40
2006,05,03,13,46,13.40
2006,05,03,13,47,13.30
2006,05,03,13,48,13.30
2006,05,03,13,49,13.20
2006,05,03,13,50,13.10
2006,05,03,13,51,12.90
2006,05,03,13,52,12.80
2006,05,03,13,53,12.70
2006,05,03,13,54,12.70
2006,05,03,13,55,12.80
2006,05,03,13,56,13.00
2006,05,03,13,57,13.10
2006,05,03,13,58,13.20
2006,05,03,13,59,13.20
2006,05,03,14,00,13.20
2006,05,03,14,01,13.20
2006,05,03,14,02,13.20
2006,05,03,14,03,13.20
2006,05,03,14,04,13.30
2006,05,03,14,05,13.30
2006,05,03,14,06,13.40
2006,05,03,14,07,13.50
2006,05,03,14,08,13.60
2006,05,03,14,09,13.70
2006,05,03,14,10,13.70
2006,05,03,14,11,13.70
2006,05,03,14,12,13.70
2006,05,03,14,13,13.80
2006,05,03,14,14,13.70
2006,05,03,14,15,13.70
2006,05,03,14,16,13.70
2006,05,03,14,17,13.70
2006,05,03,14,18,13.60
2006,05,03,14,19,13.50
2006,05,03,14,20,13.40
2006,05,03,14,21,13.40
2006,05,03,14,22,13.40
2006,05,03,14,23,13.40
2006,05,03,14,24,13.20
2006,05,03,14,25,13.10
2006,05,03,14,26,13.00
2006,05,03,14,27,13.10
2006,05,03,14,28,13.10
2006,05,03,14,29,13.20
2006,05,03,14,30,13.40
2006,05,03,14,31,13.50
2006,05,03,14,32,13.40
2006,05,03,14,33,13.30
2006,05,03,14,34,13.20
2006,05,03,14,35,13.10
2006,05,03,14,36,13.10
2006,05,03,14,37,13.20
2006,05,03,14,38,13.30
2006,05,03,14,39,13.50
2006,05,03,14,40,13.50
2006,05,03,14,41,13.50
2006,05,03,14,42,13.30
2006,05,03,14,43,13.40
2006,05,03,14,44,13.50
2006,05,03,14,45,13.70
2006,05,03,14,46,13.70
2006,05,03,14,47,13.60
2006,05,03,14,48,13.50
2006,05,03,14,49,13.40
2006,05,03,14,50,13.50
2006,05,03,14,51,13.50
2006,05,03,14,52,13.60
2006,05,03,14,53,13.50
2006,05,03,14,54,13.40
2006,05,03,14,55,13.30
2006,05,03,14,56,13.30
2006,05,03,14,57,13.20
2006,05,03,14,58,13.10
2006,05,03,14,59,13.00
2006,05,03,15,00,13.00
2006,05,03,15,01,13.00
2006,05,03,15,02,13.10
2006,05,03,15,03,13.20
2006,05,03,15,04,13.20
2006,05,03,15,05,13.20
2006,05,03,15,06,13.10
2006,05,03,15,07,13.00
2006,05,03,15,08,13.00
2006,05,03,15,09,13.00
2006,05,03,15,10,13.10
2006,05,03,15,11,13.20
2006,05,03,15,12,13.30
2006,05,03,15,13,13.50
2006,05,03,15,14,13.60
2006,05,03,15,15,13.70
2006,05,03,15,16,13.80
2006,05,03,15,17,13.80
2006,05,03,15,18,14.00
2006,05,03,15,19,14.00
2006,05,03,15,20,13.90
2006,05,03,15,21,13.80
2006,05,03,15,22,13.70
2006,05,03,15,23,13.70
2006,05,03,15,24,13.70
2006,05,03,15,25,13.70
2006,05,03,15,26,13.70
2006,05,03,15,27,13.70
2006,05,03,15,28,13.70
2006,05,03,15,29,13.70
2006,05,03,15,30,13.80
2006,05,03,15,31,13.80
2006,05,03,15,32,13.80
2006,05,03,15,33,13.80
2006,05,03,15,34,13.80
2006,05,03,15,35,13.80
2006,05,03,15,36,13.70
2006,05,03,15,37,13.80
2006,05,03,15,38,13.80
2006,05,03,15,39,13.80
2006,05,03,15,40,13.90
2006,05,03,15,41,13.90
2006,05,03,15,42,14.00
2006,05,03,15,43,13.90
2006,05,03,15,44,13.90
2006,05,03,15,45,14.00
2006,05,03,15,46,14.10
2006,05,03,15,47,14.20
2006,05,03,15,48,14.20
2006,05,03,15,49,14.10
2006,05,03,15,50,14.10
2006,05,03,15,51,14.00
2006,05,03,15,52,14.00
2006,05,03,15,53,14.10
2006,05,03,15,54,14.20
2006,05,03,15,55,14.20
2006,05,03,15,56,14.30
2006,05,03,15,57,14.30
2006,05,03,15,58,14.30
2006,05,03,15,59,14.50
2006,05,03,16,00,14.50
2006,05,03,16,01,14.60
2006,05,03,16,02,14.60
2006,05,03,16,03,14.50
2006,05,03,16,04,14.50
2006,05,03,16,05,14.40
2006,05,03,16,06,14.50
2006,05,03,16,07,14.50
2006,05,03,16,08,14.60
2006,05,03,16,09,14.50
2006,05,03,16,10,14.40
2006,05,03,16,11,14.30
2006,05,03,16,12,14.50
2006,05,03,16,13,14.60
2006,05,03,16,14,14.60
2006,05,03,16,15,14.70
2006,05,03,16,16,14.60
2006,05,03,16,17,14.50
2006,05,03,16,18,14.50
2006,05,03,16,19,14.60
2006,05,03,16,20,14.60
2006,05,03,16,21,14.50
2006,05,03,16,22,14.40
2006,05,03,16,23,14.40
2006,05,03,16,24,14.30
2006,05,03,16,25,14.40
2006,05,03,16,26,14.50
2006,05,03,16,27,14.50
2006,05,03,16,28,14.40
2006,05,03,16,29,14.20
2006,05,03,16,30,14.10
2006,05,03,16,31,14.10
2006,05,03,16,32,14.10
2006,05,03,16,33,14.00
2006,05,03,16,34,14.00
2006,05,03,16,35,14.10
2006,05,03,16,36,14.20
2006,05,03,16,37,14.30
2006,05,03,16,38,14.40
2006,05,03,16,39,14.40
2006,05,03,16,40,14.50
2006,05,03,16,41,14.60
2006,05,03,16,42,14.50
2006,05,03,16,43,14.50
2006,05,03,16,44,14.50
2006,05,03,16,45,14.40
2006,05,03,16,46,14.30
2006,05,03,16,47,14.40
2006,05,03,16,48,14.50
2006,05,03,16,49,14.50
2006,05,03,16,50,14.50
2006,05,03,16,51,14.40
2006,05,03,16,52,14.40
2006,05,03,16,53,14.40
2006,05,03,16,54,14.40
2006,05,03,16,55,14.50
2006,05,03,16,56,14.60
2006,05,03,16,57,14.70
2006,05,03,16,58,14.80
2006,05,03,16,59,14.70
2006,05,03,17,00,14.60
2006,05,03,17,01,14.60
2006,05,03,17,02,14.70
2006,05,03,17,03,14.70
2006,05,03,17,04,14.80
2006,05,03,17,05,14.80
2006,05,03,17,06,14.80
2006,05,03,17,07,14.80
2006,05,03,17,08,14.80
2006,05,03,17,09,14.80
2006,05,03,17,10,14.80
2006,05,03,17,11,14.80
2006,05,03,17,12,14.80
2006,05,03,17,13,14.70
2006,05,03,17,14,14.70
2006,05,03,17,15,14.60
2006,05,03,17,16,14.60
2006,05,03,17,17,14.60
2006,05,03,17,18,14.60
2006,05,03,17,19,14.70
2006,05,03,17,20,14.80
2006,05,03,17,21,14.90
2006,05,03,17,22,15.10
2006,05,03,17,23,15.20
2006,05,03,17,24,15.40
2006,05,03,17,25,15.60
2006,05,03,17,26,15.60
2006,05,03,17,27,15.70
2006,05,03,17,28,15.70
2006,05,03,17,29,15.70
2006,05,03,17,30,15.70
2006,05,03,17,31,15.60
2006,05,03,17,32,15.50
2006,05,03,17,33,15.40
2006,05,03,17,34,15.30
2006,05,03,17,35,15.30
2006,05,03,17,36,15.40
2006,05,03,17,37,15.60
2006,05,03,17,38,15.70
2006,05,03,17,39,15.70
2006,05,03,17,40,15.60
2006,05,03,17,41,15.50